Location: Corralito
(10.2667°N, 66.9500°W)
Time: 18:21:56
(UTC+00:00)

Cosmos 1190 Rocket - Pass Details

Date: 23 March 2023
Orbit: 755 x 780 km, 74.1° (Epoch: 08 June)

Event Time Altitude Azimuth Distance (km) Brightness Sun altitude
Rises 23:46:20 0° 354° (N) 3,207 7.4 -17.5°
Reaches altitude 10° 23:48:44 10° 358° (N) 2,286 6.5 -18.1°
Maximum altitude 23:53:49 58° 77° (ENE) 889 4.0 -19.3°
Enters shadow 23:57:02 23° 149° (SSE) 1,602 5.3 -20.1°
